Terug naar catalogus

FENGYUN 1C DEB

ActiefPO
NORAD 32372·DEBRIS·🇨🇳 China

Gelanceerd May 10, 1999 vanaf Taiyuan Satellite Launch Center

Loading…

Volgende Passages (komende 24 uur)

TLE

VerouderendSource: Space-Track

Epoch: Sep 7, 2026, 17:15 UTC

1 32372U 99025CZR 26250.71941517  .00000682  00000-0  75787-3 0  9995
2 32372  97.3077  61.5035 0455895  60.2248 304.3425 13.36115432637310

Volg FENGYUN 1C DEB in realtime met AllMySat

Download on the App Store